Stations météo

Publicité
Tours, France (7240): Température de l'air & dewpoint: 10.02.2019 08:00:00 - 16.02.2019 08:00:00 (CET)Tours, France (7240): Température de l'air 5cm: 10.02.2019 08:00:00 - 16.02.2019 08:00:00 (CET)Tours, France (7240): Température de l'air -20cm & Température de l'air -100cm: 10.02.2019 08:00:00 - 16.02.2019 08:00:00 (CET)Tours, France (7240): Vitesse du vent & gusts: 10.02.2019 08:00:00 - 16.02.2019 08:00:00 (CET)Tours, France (7240): Direction du vent: 10.02.2019 08:00:00 - 16.02.2019 08:00:00 (CET)Tours, France (7240): reduced air pressure: 10.02.2019 08:00:00 - 16.02.2019 08:00:00 (CET)Tours, France (7240): visibility: 10.02.2019 08:00:00 - 16.02.2019 08:00:00 (CET)Tours, France (7240): Ensoleillement: 10.02.2019 08:00:00 - 16.02.2019 08:00:00 (CET)Tours, France (7240): Quantités de précipitations: 10.02.2019 08:00:00 - 16.02.2019 08:00:00 (CET)
Date & Time tt [°C] td [°C] tt 5cm [°C] tt -20cm [°C] tt -100cm [°C] ff [km/h] ff [knt] fx [km/h] fx [knt] dd ppp [hPa] vv [km] sd [min] rr [mm]
16.02.2019 08:00:00 - - - - - - - - - - - - - -
16.02.2019 07:00:00 0,6 -0,9 -2,8 6,4 8,0 2 1 8 4 E 1027,5 7 0 0,0
16.02.2019 06:00:00 0,7 -1,1 -1,7 6,4 8,0 5 3 11 6 SSE 1027,4 10 0 0,0
16.02.2019 05:00:00 1,6 -0,3 -1,9 6,5 8,0 4 2 6 3 ESE 1027,4 9 0 0,0
16.02.2019 04:00:00 2,0 -0,4 -1,2 6,6 8,0 5 3 10 5 ESE 1027,5 10 0 0,0
16.02.2019 03:00:00 2,7 -0,8 -1,3 6,6 8,0 7 4 9 5 SE 1027,8 12 0 0,0
16.02.2019 02:00:00 2,7 -0,9 -1,9 6,7 8,0 3 2 8 4 SSE 1027,9 13 0 0,0
16.02.2019 01:00:00 3,0 0,4 -1,2 6,7 8,0 3 2 4 2 ESE 1027,8 17 0 0,0
16.02.2019 00:00:00 5,6 -0,5 -0,4 6,8 8,0 0 0 8 4 N 1027,4 16 0 0,0
15.02.2019 23:00:00 5,4 -0,7 0,9 6,8 8,0 5 3 6 3 SE 1027,5 15 0 0,0
15.02.2019 22:00:00 7,6 -0,4 2,0 6,8 8,1 3 2 8 5 E 1027,2 20 0 0,0
15.02.2019 21:00:00 9,0 -2,0 2,7 6,8 8,0 5 3 6 4 ESE 1027,3 21 0 0,0
15.02.2019 20:00:00 10,5 -1,6 4,2 6,7 8,0 4 2 6 4 ESE 1027,3 22 0 0,0
15.02.2019 19:00:00 12,9 -2,2 5,4 6,6 8,0 3 2 9 5 SSE 1027,0 56 0 0,0
15.02.2019 18:00:00 14,2 -0,3 12,2 6,5 8,0 8 4 15 8 S 1026,8 51 55 0,0
15.02.2019 17:00:00 16,4 0,9 19,3 6,3 8,1 8 5 18 10 SSE 1026,7 36 60 0,0
15.02.2019 16:00:00 16,6 -0,6 20,3 6,2 8,1 9 5 16 9 SSE 1026,9 18 60 0,0
15.02.2019 15:00:00 15,3 1,4 19,8 6,0 8,0 6 4 14 8 E 1027,3 45 60 0,0
15.02.2019 14:00:00 15,1 0,9 19,0 5,9 8,0 7 4 15 8 S 1027,9 44 60 0,0
15.02.2019 13:00:00 13,4 1,7 16,6 5,9 8,1 6 3 11 6 ESE 1028,9 20 60 0,0
15.02.2019 12:00:00 10,9 1,9 12,2 6,0 8,1 8 4 13 7 SE 1029,6 18 60 0,0
15.02.2019 11:00:00 8,6 2,6 11,6 6,0 8,1 6 4 11 6 SE 1029,9 19 60 0,0
15.02.2019 10:00:00 4,4 2,1 3,3 6,1 8,0 3 2 11 6 ENE 1029,9 10 60 0,0
15.02.2019 09:00:00 1,8 0,6 -0,5 6,1 8,1 8 4 12 7 E 1030,0 7 33 0,0
15.02.2019 08:00:00 0,9 -0,1 -1,6 6,2 8,1 11 6 16 9 E 1029,6 8 0 0,0
15.02.2019 07:00:00 1,2 0,2 -1,3 6,2 8,1 11 6 14 8 E 1029,6 9 0 0,0
15.02.2019 06:00:00 1,5 0,2 -1,7 6,3 8,1 9 5 11 6 E 1029,6 8 0 0,0
15.02.2019 05:00:00 2,0 0,7 -0,3 6,4 8,1 9 5 13 7 E 1029,3 11 0 0,0
15.02.2019 04:00:00 2,9 1,1 -0,5 6,4 8,1 8 4 14 8 E 1029,3 11 0 0,0
15.02.2019 03:00:00 3,3 1,7 0,3 6,5 8,1 13 7 16 8 E 1029,6 13 0 0,0
15.02.2019 02:00:00 3,7 2,4 1,1 6,6 8,1 11 6 14 7 E 1029,9 12 0 0,0
15.02.2019 01:00:00 4,1 2,4 0,8 6,6 8,1 8 4 11 6 E 1029,7 10 0 0,0
15.02.2019 00:00:00 4,6 3,4 0,9 6,6 8,1 5 3 15 8 E 1029,8 9 0 0,0
14.02.2019 23:00:00 4,7 3,0 2,1 6,7 8,1 10 5 14 7 ENE 1030,1 13 0 0,0
14.02.2019 22:00:00 6,4 3,5 2,2 6,7 8,1 10 5 16 8 ENE 1030,0 16 0 0,0
14.02.2019 21:00:00 7,0 3,6 2,9 6,7 8,1 11 6 15 8 ENE 1030,1 15 0 0,0
14.02.2019 20:00:00 7,2 4,0 3,0 6,6 8,1 9 5 15 8 ENE 1030,4 20 0 0,0
14.02.2019 19:00:00 9,2 3,8 4,5 6,5 8,1 10 5 13 7 NE 1030,3 26 0 0,0
14.02.2019 18:00:00 10,9 4,6 8,7 6,4 8,1 9 5 21 11 E 1029,8 38 54 0,0
14.02.2019 17:00:00 13,4 3,7 15,2 6,2 8,1 11 6 17 9 E 1030,1 42 60 0,0
14.02.2019 16:00:00 14,1 2,6 17,5 6,1 8,1 9 5 20 11 SE 1030,5 17 60 0,0
14.02.2019 15:00:00 13,5 2,4 17,4 6,0 8,1 8 5 18 10 ESE 1031,3 47 60 0,0
14.02.2019 14:00:00 12,8 2,9 17,0 5,9 8,1 8 4 16 9 ESE 1032,1 43 60 0,0
14.02.2019 13:00:00 11,3 2,3 15,8 5,9 8,1 6 4 14 7 E 1032,8 9 60 0,0
14.02.2019 12:00:00 9,7 2,1 12,2 5,9 8,1 5 3 13 7 E 1033,5 21 60 0,0
14.02.2019 11:00:00 7,0 2,1 6,9 6,0 8,1 8 5 15 8 SE 1033,7 11 60 0,0
14.02.2019 10:00:00 2,7 0,9 2,8 6,0 8,1 9 5 13 7 E 1034,0 10 60 0,0
14.02.2019 09:00:00 0,8 -0,2 -1,2 6,1 8,1 11 6 16 8 E 1033,9 7 31 0,0
14.02.2019 08:00:00 -0,1 -0,8 -1,3 6,1 8,1 9 5 14 7 E 1033,5 7 0 0,0
14.02.2019 07:00:00 0,2 -0,5 -0,9 6,2 8,1 10 6 17 9 E 1033,0 8 0 0,0
14.02.2019 06:00:00 0,6 -0,1 -1,1 6,3 8,1 11 6 16 9 E 1033,1 10 0 0,0
14.02.2019 05:00:00 0,9 0,0 -1,5 6,3 8,1 11 6 15 8 ENE 1033,1 12 0 0,0
14.02.2019 04:00:00 1,3 0,3 -0,1 6,4 8,1 12 6 16 8 E 1033,0 14 0 0,0
14.02.2019 03:00:00 1,7 0,2 -0,1 6,4 8,1 10 6 14 7 ENE 1033,0 17 0 0,0
14.02.2019 02:00:00 2,6 0,7 0,6 6,5 8,1 10 6 17 9 E 1033,3 20 0 0,0
14.02.2019 01:00:00 2,9 1,3 1,9 6,5 8,1 16 9 22 12 E 1033,7 23 0 0,0
14.02.2019 00:00:00 3,4 1,6 1,4 6,6 8,1 15 8 17 9 E 1033,4 27 0 0,0
13.02.2019 23:00:00 3,3 2,1 1,3 6,6 8,1 10 5 14 8 ENE 1033,5 16 0 0,0
13.02.2019 22:00:00 3,9 2,7 1,9 6,6 8,1 9 5 18 10 ENE 1033,2 11 0 0,0
13.02.2019 21:00:00 5,2 3,8 4,0 6,6 8,1 15 8 21 12 ENE 1033,1 12 0 0,0
13.02.2019 20:00:00 6,2 4,2 4,8 6,6 8,2 14 8 24 13 ENE 1033,3 17 0 0,0
13.02.2019 19:00:00 7,6 4,4 4,7 6,5 8,1 11 6 20 11 NE 1033,1 27 0 0,0
13.02.2019 18:00:00 8,1 3,9 6,6 6,4 8,2 11 6 22 12 ENE 1032,7 38 29 0,0
13.02.2019 17:00:00 9,8 4,2 10,9 6,3 8,2 16 9 28 15 ENE 1032,6 40 60 0,0
13.02.2019 16:00:00 9,9 3,8 12,4 6,2 8,1 16 8 27 14 ENE 1032,9 29 60 0,0
13.02.2019 15:00:00 9,6 2,4 12,9 6,1 8,2 16 9 26 14 ENE 1033,1 29 60 0,0
13.02.2019 14:00:00 8,8 3,4 11,3 6,1 8,2 13 7 26 14 E 1034,0 20 60 0,0
13.02.2019 13:00:00 7,5 2,6 10,4 6,1 8,2 16 9 28 15 E 1034,7 16 60 0,0
13.02.2019 12:00:00 6,5 3,1 9,9 6,1 8,2 14 8 24 13 E 1035,5 16 60 0,0
13.02.2019 11:00:00 4,2 2,1 5,7 6,2 8,1 9 5 12 7 ENE 1035,8 15 60 0,0
13.02.2019 10:00:00 1,9 1,0 1,6 6,3 8,2 9 5 15 8 E 1036,2 6 60 0,0
13.02.2019 09:00:00 0,8 0,4 -1,0 6,3 8,2 11 6 15 8 E 1036,2 4,0 30 0,0
13.02.2019 08:00:00 0,2 -0,2 -1,3 6,4 8,2 10 5 17 9 E 1036,1 4,1 0 0,0
13.02.2019 07:00:00 0,6 0,0 -1,4 6,5 8,2 11 6 16 9 ENE 1035,6 5 0 0,0
13.02.2019 06:00:00 0,9 0,5 -0,5 6,5 8,2 9 5 16 9 ENE 1035,7 7 0 0,0
13.02.2019 05:00:00 1,3 0,7 -0,1 6,6 8,2 12 7 16 9 E 1035,9 7 0 0,0
13.02.2019 04:00:00 1,6 1,0 -1,2 6,7 8,2 12 6 16 9 ENE 1036,0 9 0 0,0
13.02.2019 03:00:00 1,7 1,1 -1,3 6,7 8,2 5 3 9 5 ENE 1036,3 9 0 0,0
13.02.2019 02:00:00 2,1 1,4 -0,5 6,8 8,2 4 2 9 5 E 1036,6 11 0 0,0
13.02.2019 01:00:00 2,1 1,2 -0,1 6,8 8,2 6 4 14 8 ENE 1036,6 14 0 0,0
13.02.2019 00:00:00 2,9 1,7 1,5 6,8 8,2 12 6 18 10 E 1036,5 19 0 0,0
12.02.2019 23:00:00 3,7 2,2 2,4 6,9 8,2 13 7 19 10 E 1036,7 21 0 0,0
12.02.2019 22:00:00 4,3 2,5 2,1 6,9 8,2 12 7 15 8 E 1036,7 34 0 0,0
12.02.2019 21:00:00 4,5 2,8 2,2 6,9 8,2 9 5 15 8 ENE 1036,6 28 0 0,0
12.02.2019 20:00:00 5,6 3,1 2,9 6,8 8,2 10 6 14 7 ENE 1036,6 35 0 0,0
12.02.2019 19:00:00 7,4 2,9 3,0 6,8 8,2 5 3 10 6 ENE 1036,2 52 0 0,0
12.02.2019 18:00:00 8,4 3,6 7,3 6,7 8,2 8 5 11 6 E 1035,6 42 50 0,0
12.02.2019 17:00:00 10,1 3,6 12,9 6,5 8,2 5 3 13 7 E 1035,5 45 60 0,0
12.02.2019 16:00:00 10,3 2,9 15,3 6,4 8,2 5 3 12 6 ENE 1035,6 49 60 0,0
12.02.2019 15:00:00 10,5 3,1 15,2 6,3 8,2 4 2 11 6 E 1035,8 19 60 0,0
12.02.2019 14:00:00 10,2 3,2 15,3 6,3 8,2 7 4 15 8 SSE 1036,1 49 60 0,0
12.02.2019 13:00:00 8,9 4,3 13,9 6,3 8,2 2 1 11 6 SW 1036,8 19 60 0,0
12.02.2019 12:00:00 7,7 4,1 12,5 6,3 8,2 6 4 13 7 SSE 1037,1 12 60 0,0
12.02.2019 11:00:00 6,3 3,5 8,4 6,4 8,2 4 2 8 4 SSE 1037,3 15 60 0,0
12.02.2019 10:00:00 3,0 1,8 2,6 6,5 8,2 3 2 5 3 ENE 1037,6 9 58 0,0
12.02.2019 09:00:00 0,2 -0,4 -3,4 6,6 8,2 2 1 5 3 ENE 1037,2 8 28 0,0
12.02.2019 08:00:00 -0,9 -1,5 -4,3 6,7 8,2 0 0 5 3 N 1036,7 12 0 0,0
12.02.2019 07:00:00 -0,5 -0,9 -4,1 6,8 8,2 4 2 7 4 NNW 1036,5 15 0 0,0
12.02.2019 06:00:00 -0,6 -1,2 -3,8 6,8 8,2 5 3 7 4 NW 1036,2 17 0 0,0
12.02.2019 05:00:00 -0,2 -0,9 -3,3 6,9 8,2 0 0 6 3 N 1035,7 12 0 0,0
12.02.2019 04:00:00 0,4 -0,3 -3,0 7,0 8,2 2 1 5 3 NE 1035,5 15 0 0,0
12.02.2019 03:00:00 1,2 0,3 -2,5 7,0 8,2 0 0 4 2 N 1035,7 15 0 0,0
12.02.2019 02:00:00 1,5 0,5 -1,9 7,1 8,2 2 1 5 3 SSW 1035,6 25 0 0,0
12.02.2019 01:00:00 2,6 0,8 -1,2 7,1 8,1 3 2 6 3 N 1034,9 41 0 0,0
12.02.2019 00:00:00 3,4 1,1 0,4 7,2 8,1 0 0 10 6 N 1034,9 39 0 0,0
11.02.2019 23:00:00 4,9 1,9 2,2 7,2 8,2 7 4 11 6 NNE 1034,5 48 0 0,0
11.02.2019 22:00:00 5,3 2,3 3,1 7,2 8,2 6 4 12 7 NNW 1034,0 53 0 0,0
11.02.2019 21:00:00 5,9 2,5 3,9 7,2 8,1 8 4 17 9 NNW 1033,5 50 0 0,0
11.02.2019 20:00:00 7,1 2,8 5,5 7,2 8,1 9 5 15 8 NNW 1032,5 58 0 0,0
11.02.2019 19:00:00 7,8 3,5 6,3 7,1 8,1 8 5 16 9 NNW 1031,7 55 0 0,0
11.02.2019 18:00:00 8,6 3,4 7,9 7,1 8,2 10 6 22 12 NNW 1030,5 57 8 0,0
11.02.2019 17:00:00 9,7 3,2 9,4 7,0 8,1 10 5 24 13 NNW 1029,7 57 32 0,0
11.02.2019 16:00:00 9,1 3,7 9,0 7,0 8,1 12 6 25 14 NW 1028,7 56 3 0,0
11.02.2019 15:00:00 8,9 3,7 8,7 6,9 8,1 14 8 32 17 NW 1028,4 58 0 0,0
11.02.2019 14:00:00 9,1 4,7 8,4 6,9 8,1 15 8 32 17 NW 1027,8 60 8 0,0
11.02.2019 13:00:00 8,6 4,8 9,0 6,9 8,1 18 10 35 19 NW 1027,2 20 28 0,0
11.02.2019 12:00:00 7,9 5,0 6,6 6,9 8,1 18 10 32 17 W 1026,7 18 22 0,0
11.02.2019 11:00:00 6,2 4,0 4,6 7,0 8,1 20 11 37 20 W 1025,8 20 13 0,2
11.02.2019 10:00:00 4,6 3,1 3,7 7,1 8,1 12 6 25 13 WSW 1025,2 20 12 0,2
11.02.2019 09:00:00 3,7 2,4 2,5 7,1 8,1 13 7 22 12 WSW 1024,4 20 6 0,0
11.02.2019 08:00:00 3,2 2,2 0,3 7,2 8,1 13 7 21 12 WSW 1023,4 39 0 0,0
11.02.2019 07:00:00 2,4 1,4 0,1 7,3 8,1 8 4 16 8 SW 1022,4 39 0 0,0
11.02.2019 06:00:00 2,6 1,3 0,2 7,4 8,0 10 5 16 9 WSW 1021,9 56 0 0,0
11.02.2019 05:00:00 3,1 1,5 1,4 7,4 8,0 10 5 21 11 WSW 1021,3 50 0 0,0
11.02.2019 04:00:00 3,5 1,5 2,0 7,5 8,0 13 7 21 12 W 1021,0 54 0 0,0
11.02.2019 03:00:00 3,8 1,5 2,3 7,6 8,0 14 7 29 16 W 1020,6 56 0 0,0
11.02.2019 02:00:00 4,4 1,8 2,9 7,6 8,0 16 9 30 16 W 1020,2 50 0 0,0
11.02.2019 01:00:00 4,5 1,7 3,1 7,7 8,0 15 8 24 13 W 1019,4 55 0 0,0
11.02.2019 00:00:00 4,7 1,9 2,9 7,7 8,0 14 8 25 13 WSW 1018,8 45 0 0,0
10.02.2019 23:00:00 4,7 1,7 3,1 7,8 8,0 10 6 27 14 W 1018,0 56 0 0,0
10.02.2019 22:00:00 5,5 1,8 4,0 7,8 8,0 16 9 31 17 W 1017,1 50 0 0,0
10.02.2019 21:00:00 5,9 2,2 4,8 7,8 8,0 20 11 50 27 W 1016,1 59 0 0,0
10.02.2019 20:00:00 6,8 2,1 5,2 7,9 8,0 24 13 41 22 W 1014,7 60 0 0,0
10.02.2019 19:00:00 6,4 3,0 4,0 7,9 8,0 14 8 25 14 W 1013,3 60 0 0,0
10.02.2019 18:00:00 6,7 3,1 5,5 7,8 8,0 19 11 67 36 W 1012,0 60 18 0,0
10.02.2019 17:00:00 8,8 4,8 8,1 7,8 8,0 35 19 63 34 WSW 1009,8 55 41 0,0
10.02.2019 16:00:00 8,6 4,0 8,0 7,8 7,9 36 20 71 38 WSW 1008,9 34 51 0,0
10.02.2019 15:00:00 9,0 3,6 6,7 7,8 8,0 35 19 67 36 W 1007,2 7 15 0,0
10.02.2019 14:00:00 9,0 3,4 9,0 7,8 8,0 38 20 75 40 W 1005,9 36 23 0,0
10.02.2019 13:00:00 8,5 3,9 7,7 7,8 7,9 32 18 67 36 W 1005,1 24 33 0,0
10.02.2019 12:00:00 8,4 5,1 7,2 7,8 7,9 39 21 66 36 WSW 1004,1 42 4 0,2
10.02.2019 11:00:00 7,7 6,2 7,1 7,8 8,0 29 16 49 26 WSW 1003,2 19 0 0,0
10.02.2019 10:00:00 7,6 6,2 6,9 7,7 7,9 27 15 57 31 SW 1002,4 58 0 0,6
10.02.2019 09:00:00 8,2 6,7 7,2 7,7 7,9 34 19 69 38 W 1001,8 8 0 2,0
10.02.2019 08:00:00 9,3 7,9 8,4 7,7 7,9 34 18 70 38 W 999,7 1,3 0 4,9

tt = Température de l'air
td = dewpoint
tt 5cm = Température de l'air 5cm
tt -20cm = Température de l'air -20cm
tt -100cm = Température de l'air -100cm
ff = Vitesse du vent
fx = gusts
dd = Direction du vent
ppp = reduced air pressure
vv = visibility
sd = Ensoleillement
rr = Quantités de précipitations

stations d'obs. à proximité